Terug naar catalogus

KUIPER-00564

ActiefCommunicatieLEO
NORAD 69625·PAYLOAD·🇺🇸 United States

Gelanceerd Jun 17, 2026 vanaf Guiana Space Centre

Loading…

Volgende Passages (komende 24 uur)

TLE

VersSource: CelesTrak SupGP

Epoch: Sep 14, 2026, 19:13 UTC

1 69625C 26140AK  26257.80079861  .00001693  00000+0  23987-3 0  2579
2 69625  51.8979 334.2736 0001957 106.2580 135.5611 14.76573921    19

Volg KUIPER-00564 in realtime met AllMySat

Download on the App Store